| time (UTC) | temp F | wind direction | speed MPH | gust MPH | rain 1hr in | rain 24hr in | rain mn in | humidity % | barometer mb |
| 20260508090716 | 52 | 135 | 0.0 | 3.0 | 0.00 | 0.00 | 0.00 | 66 | 1024.7 |
| 20260508090703 | 52 | 269 | 0.0 | 3.0 | 0.00 | 0.00 | 0.00 | 66 | 1024.8 |
| 20260508085716 | 52 | 140 | 1.0 | 3.0 | 0.00 | 0.00 | 0.00 | 66 | 1024.8 |
| 20260508085214 | 52 | 96 | 0.0 | 2.0 | 0.00 | 0.00 | 0.00 | 65 | 1024.7 |
| 20260508084714 | 53 | 180 | 0.0 | 4.0 | 0.00 | 0.00 | 0.00 | 65 | 1024.7 |
| 20260508084435 | 53 | 161 | 2.0 | 4.0 | 0.00 | 0.00 | 0.00 | 64 | 1024.6 |
| 20260508083714 | 53 | 207 | 1.0 | 2.0 | 0.00 | 0.00 | 0.00 | 64 | 1024.6 |
| 20260508083211 | 53 | 164 | 2.0 | 2.0 | 0.00 | 0.00 | 0.00 | 63 | 1024.6 |
| 20260508082710 | 53 | 199 | 1.0 | 3.0 | 0.00 | 0.00 | 0.00 | 63 | 1024.7 |
| 20260508082212 | 53 | 226 | 2.0 | 3.0 | 0.00 | 0.00 | 0.00 | 62 | 1024.6 |
| 20260508081710 | 53 | 210 | 2.0 | 2.0 | 0.00 | 0.00 | 0.00 | 63 | 1024.6 |
| 20260508081215 | 53 | 220 | 2.0 | 2.0 | 0.00 | 0.00 | 0.00 | 63 | 1024.7 |
| 20260508081158 | 53 | 231 | 1.0 | 3.0 | 0.00 | 0.00 | 0.00 | 63 | 1024.7 |
| 20260508080214 | 53 | 213 | 2.0 | 3.0 | 0.00 | 0.00 | 0.00 | 63 | 1024.7 |
| 20260508075936 | 54 | 231 | 0.0 | 3.0 | 0.00 | 0.00 | 0.00 | 62 | 1024.7 |
| 20260508075209 | 54 | 199 | 2.0 | 3.0 | 0.00 | 0.00 | 0.00 | 62 | 1024.7 |
| 20260508074710 | 54 | 192 | 1.0 | 2.0 | 0.00 | 0.00 | 0.00 | 61 | 1024.7 |
| 20260508074209 | 54 | 210 | 1.0 | 2.0 | 0.00 | 0.00 | 0.00 | 61 | 1024.7 |
| 20260508073711 | 54 | 206 | 0.0 | 2.0 | 0.00 | 0.00 | 0.00 | 61 | 1024.6 |
| 20260508073212 | 55 | 196 | 0.0 | 1.0 | 0.00 | 0.00 | 0.00 | 60 | 1024.5 |
| 20260508072714 | 55 | 82 | 0.0 | 3.0 | 0.00 | 0.00 | 0.00 | 58 | 1024.6 |
| 20260508072212 | 56 | 82 | 1.0 | 3.0 | 0.00 | 0.00 | 0.00 | 57 | 1024.6 |
| 20260508071712 | 57 | 195 | 0.0 | 2.0 | 0.00 | 0.00 | 0.00 | 55 | 1024.6 |
| 20260508071212 | 57 | 192 | 0.0 | 2.0 | 0.00 | 0.00 | 0.00 | 55 | 1024.6 |
| 20260508070712 | 58 | 196 | 1.0 | 5.0 | 0.00 | 0.00 | 0.00 | 54 | 1024.7 |
| 20260508070213 | 58 | 204 | 0.0 | 5.0 | 0.00 | 0.00 | 0.00 | 53 | 1024.6 |
| 20260508065712 | 59 | 121 | 3.0 | 5.0 | 0.00 | 0.00 | 0.00 | 53 | 1024.6 |
| 20260508065213 | 61 | 37 | 1.0 | 4.0 | 0.00 | 0.00 | 0.00 | 49 | 1024.5 |
| 20260508064711 | 60 | 257 | 1.0 | 3.0 | 0.00 | 0.00 | 0.00 | 49 | 1024.5 |
| 20260508064211 | 60 | 155 | 0.0 | 1.0 | 0.00 | 0.00 | 0.00 | 50 | 1024.5 |
| 20260508063711 | 60 | 276 | 0.0 | 1.0 | 0.00 | 0.00 | 0.00 | 49 | 1024.4 |
| 20260508063210 | 61 | 0 | 0.0 | 3.0 | 0.00 | 0.00 | 0.00 | 49 | 1024.4 |
| 20260508062711 | 62 | 285 | 1.0 | 7.0 | 0.00 | 0.00 | 0.00 | 47 | 1024.4 |
| 20260508062211 | 63 | 296 | 0.0 | 7.0 | 0.00 | 0.00 | 0.00 | 47 | 1024.5 |
| 20260508061711 | 62 | 226 | 3.0 | 6.0 | 0.00 | 0.00 | 0.00 | 46 | 1024.4 |
| 20260508061210 | 62 | 285 | 1.0 | 4.0 | 0.00 | 0.00 | 0.00 | 48 | 1024.4 |
| 20260508060713 | 60 | 241 | 1.0 | 4.0 | 0.00 | 0.00 | 0.00 | 50 | 1024.2 |
| 20260508060211 | 60 | 269 | 0.0 | 2.0 | 0.00 | 0.00 | 0.00 | 51 | 1024.4 |
| 20260508055711 | 60 | 241 | 1.0 | 2.0 | 0.00 | 0.00 | 0.00 | 51 | 1024.4 |
| 20260508055649 | 60 | 262 | 0.0 | 1.0 | 0.00 | 0.00 | 0.00 | 51 | 1024.4 |
| 20260508054710 | 60 | 262 | 0.0 | 3.0 | 0.00 | 0.00 | 0.00 | 52 | 1024.2 |
| 20260508054210 | 60 | 274 | 1.0 | 3.0 | 0.00 | 0.00 | 0.00 | 52 | 1024.4 |
| 20260508053711 | 60 | 141 | 1.0 | 2.0 | 0.00 | 0.00 | 0.00 | 53 | 1024.2 |
| 20260508053210 | 60 | 330 | 0.0 | 2.0 | 0.00 | 0.00 | 0.00 | 54 | 1024.1 |
| 20260508052929 | 60 | 313 | 0.0 | 2.0 | 0.00 | 0.00 | 0.00 | 55 | 1024.2 |
| 20260508052211 | 61 | 261 | 0.0 | 2.0 | 0.00 | 0.00 | 0.00 | 52 | 1024.2 |
| 20260508051709 | 62 | 261 | 0.0 | 2.0 | 0.00 | 0.00 | 0.00 | 50 | 1024.1 |
| 20260508051434 | 63 | 264 | 0.0 | 2.0 | 0.00 | 0.00 | 0.00 | 47 | 1024.0 |
| 20260508050927 | 62 | 255 | 0.0 | 0.0 | 0.00 | 0.00 | 0.00 | 48 | 1024.0 |
| 20260508050214 | 62 | 261 | 0.0 | 0.0 | 0.00 | 0.00 | 0.00 | 49 | 1024.1 |
| 20260508045709 | 60 | 261 | 0.0 | 0.0 | 0.00 | 0.00 | 0.00 | 52 | 1024.1 |
| 20260508045208 | 59 | 248 | 0.0 | 0.0 | 0.00 | 0.00 | 0.00 | 54 | 1024.1 |
| 20260508044932 | 59 | 248 | 0.0 | 0.0 | 0.00 | 0.00 | 0.00 | 55 | 1024.1 |
| 20260508044209 | 59 | 247 | 0.0 | 0.0 | 0.00 | 0.00 | 0.00 | 56 | 1024.0 |
| 20260508044154 | 60 | 247 | 0.0 | 0.0 | 0.00 | 0.00 | 0.00 | 55 | 1024.0 |
| 20260508043208 | 60 | 247 | 0.0 | 0.0 | 0.00 | 0.00 | 0.00 | 55 | 1023.9 |
| 20260508042709 | 61 | 279 | 0.0 | 0.0 | 0.00 | 0.00 | 0.00 | 54 | 1023.9 |
| 20260508042208 | 61 | 245 | 0.0 | 0.0 | 0.00 | 0.00 | 0.00 | 54 | 1023.8 |
| 20260508041708 | 60 | 204 | 0.0 | 0.0 | 0.00 | 0.00 | 0.00 | 55 | 1023.7 |
| 20260508041657 | 60 | 224 | 0.0 | 0.0 | 0.00 | 0.00 | 0.00 | 57 | 1023.7 |
| 20260508040707 | 61 | 224 | 0.0 | 0.0 | 0.00 | 0.00 | 0.00 | 56 | 1023.7 |
| 20260508040209 | 62 | 224 | 0.0 | 0.0 | 0.00 | 0.00 | 0.00 | 53 | 1023.7 |
| 20260508035707 | 63 | 224 | 0.0 | 0.0 | 0.00 | 0.00 | 0.00 | 52 | 1023.6 |
| 20260508035210 | 63 | 285 | 0.0 | 0.0 | 0.00 | 0.00 | 0.00 | 51 | 1023.6 |
| 20260508034939 | 63 | 326 | 0.0 | 0.0 | 0.00 | 0.00 | 0.00 | 51 | 1023.5 |
| 20260508034212 | 64 | 288 | 0.0 | 0.0 | 0.00 | 0.00 | 0.00 | 50 | 1023.5 |
| 20260508033708 | 65 | 251 | 0.0 | 0.0 | 0.00 | 0.00 | 0.00 | 49 | 1023.4 |
| 20260508033431 | 65 | 213 | 0.0 | 0.0 | 0.00 | 0.00 | 0.00 | 48 | 1023.5 |
| 20260508032708 | 66 | 207 | 0.0 | 0.0 | 0.00 | 0.00 | 0.00 | 46 | 1023.4 |
| 20260508032207 | 67 | 245 | 0.0 | 0.0 | 0.00 | 0.00 | 0.00 | 46 | 1023.3 |
| 20260508031707 | 67 | 190 | 0.0 | 0.0 | 0.00 | 0.00 | 0.00 | 45 | 1023.3 |
| 20260508031207 | 68 | 190 | 0.0 | 0.0 | 0.00 | 0.00 | 0.00 | 43 | 1023.2 |
| 20260508030708 | 69 | 102 | 0.0 | 0.0 | 0.00 | 0.00 | 0.00 | 42 | 1023.2 |
| 20260508030207 | 69 | 102 | 0.0 | 0.0 | 0.00 | 0.00 | 0.00 | 44 | 1023.2 |
| 20260508025706 | 70 | 102 | 0.0 | 0.0 | 0.00 | 0.00 | 0.00 | 45 | 1023.2 |
| 20260508025207 | 71 | 102 | 0.0 | 0.0 | 0.00 | 0.00 | 0.00 | 41 | 1023.1 |
| 20260508024706 | 72 | 102 | 0.0 | 0.0 | 0.00 | 0.00 | 0.00 | 37 | 1023.0 |
| 20260508024207 | 73 | 110 | 0.0 | 0.0 | 0.00 | 0.00 | 0.00 | 37 | 1023.0 |
| 20260508023705 | 73 | 110 | 0.0 | 4.0 | 0.00 | 0.00 | 0.00 | 36 | 1022.9 |
| 20260508023207 | 74 | 130 | 1.0 | 4.0 | 0.00 | 0.00 | 0.00 | 35 | 1022.9 |
| 20260508022706 | 74 | 124 | 0.0 | 4.0 | 0.00 | 0.00 | 0.00 | 34 | 1022.7 |
| 20260508022207 | 74 | 130 | 2.0 | 4.0 | 0.00 | 0.00 | 0.00 | 34 | 1022.9 |
| 20260508021930 | 74 | 135 | 2.0 | 5.0 | 0.00 | 0.00 | 0.00 | 34 | 1022.9 |
| 20260508021205 | 74 | 111 | 2.0 | 5.0 | 0.00 | 0.00 | 0.00 | 34 | 1022.9 |
| 20260508020705 | 74 | 90 | 2.0 | 4.0 | 0.00 | 0.00 | 0.00 | 34 | 1022.7 |
| 20260508020205 | 75 | 113 | 0.0 | 3.0 | 0.00 | 0.00 | 0.00 | 32 | 1022.7 |
| 20260508015706 | 75 | 138 | 0.0 | 2.0 | 0.00 | 0.00 | 0.00 | 32 | 1022.9 |
| 20260508015205 | 76 | 138 | 0.0 | 2.0 | 0.00 | 0.00 | 0.00 | 29 | 1022.7 |
| 20260508014927 | 76 | 134 | 0.0 | 2.0 | 0.00 | 0.00 | 0.00 | 30 | 1022.7 |
| 20260508014204 | 76 | 125 | 1.0 | 4.0 | 0.00 | 0.00 | 0.00 | 28 | 1022.7 |
| 20260508013706 | 77 | 130 | 2.0 | 5.0 | 0.00 | 0.00 | 0.00 | 29 | 1022.7 |
| 20260508013205 | 77 | 151 | 2.0 | 5.0 | 0.00 | 0.00 | 0.00 | 28 | 1022.7 |
| 20260508012704 | 77 | 99 | 3.0 | 4.0 | 0.00 | 0.00 | 0.00 | 28 | 1022.7 |
| 20260508012205 | 77 | 94 | 2.0 | 5.0 | 0.00 | 0.00 | 0.00 | 28 | 1022.9 |
| 20260508011704 | 77 | 134 | 1.0 | 6.0 | 0.00 | 0.00 | 0.00 | 27 | 1022.7 |
| 20260508011646 | 78 | 114 | 3.0 | 6.0 | 0.00 | 0.00 | 0.00 | 26 | 1022.7 |
| 20260508010704 | 78 | 125 | 2.0 | 7.0 | 0.00 | 0.00 | 0.00 | 25 | 1023.0 |
| 20260508010206 | 79 | 151 | 2.0 | 9.0 | 0.00 | 0.00 | 0.00 | 25 | 1023.0 |
| 20260508005704 | 79 | 135 | 5.0 | 9.0 | 0.00 | 0.00 | 0.00 | 24 | 1023.0 |
| 20260508005205 | 79 | 100 | 3.0 | 7.0 | 0.00 | 0.00 | 0.00 | 25 | 1023.1 |
| 20260508004925 | 79 | 102 | 5.0 | 10.0 | 0.00 | 0.00 | 0.00 | 25 | 1023.0 |
| 20260508004203 | 79 | 96 | 5.0 | 10.0 | 0.00 | 0.00 | 0.00 | 24 | 1023.0 |
| 20260508003703 | 79 | 117 | 4.0 | 10.0 | 0.00 | 0.00 | 0.00 | 24 | 1023.1 |
| 20260508003203 | 80 | 138 | 5.0 | 9.0 | 0.00 | 0.00 | 0.00 | 24 | 1023.1 |
| 20260508002704 | 80 | 131 | 4.0 | 9.0 | 0.00 | 0.00 | 0.00 | 23 | 1023.2 |
| 20260508002203 | 80 | 116 | 4.0 | 10.0 | 0.00 | 0.00 | 0.00 | 24 | 1023.2 |
| 20260508001704 | 80 | 147 | 5.0 | 10.0 | 0.00 | 0.00 | 0.00 | 22 | 1023.3 |
| 20260508001428 | 80 | 138 | 3.0 | 7.0 | 0.00 | 0.00 | 0.00 | 24 | 1023.1 |
| 20260508001151 | 80 | 130 | 2.0 | 9.0 | 0.00 | 0.00 | 0.00 | 22 | 1023.2 |
| 20260508000204 | 80 | 148 | 4.0 | 9.0 | 0.00 | 0.00 | 0.00 | 23 | 1023.2 |
| 20260507235702 | 80 | 116 | 6.0 | 11.0 | 0.00 | 0.00 | 0.00 | 23 | 1023.2 |
| 20260507235202 | 80 | 133 | 5.0 | 11.0 | 0.00 | 0.00 | 0.00 | 23 | 1023.3 |
| 20260507234702 | 81 | 152 | 5.0 | 11.0 | 0.00 | 0.00 | 0.00 | 23 | 1023.3 |
| 20260507234203 | 81 | 137 | 3.0 | 7.0 | 0.00 | 0.00 | 0.00 | 22 | 1023.3 |
| 20260507233701 | 80 | 162 | 4.0 | 6.0 | 0.00 | 0.00 | 0.00 | 23 | 1023.3 |
| 20260507233203 | 81 | 138 | 3.0 | 6.0 | 0.00 | 0.00 | 0.00 | 22 | 1023.4 |
| 20260507232702 | 80 | 125 | 4.0 | 6.0 | 0.00 | 0.00 | 0.00 | 23 | 1023.5 |
| 20260507232428 | 81 | 209 | 3.0 | 7.0 | 0.00 | 0.00 | 0.00 | 23 | 1023.5 |
| 20260507231701 | 80 | 92 | 4.0 | 7.0 | 0.00 | 0.00 | 0.00 | 23 | 1023.5 |
| 20260507231201 | 80 | 134 | 1.0 | 11.0 | 0.00 | 0.00 | 0.00 | 24 | 1023.5 |
| 20260507230702 | 80 | 97 | 6.0 | 11.0 | 0.00 | 0.00 | 0.00 | 23 | 1023.5 |
| 20260507230201 | 80 | 133 | 3.0 | 6.0 | 0.00 | 0.00 | 0.00 | 23 | 1023.5 |
| 20260507225702 | 80 | 213 | 1.0 | 10.0 | 0.00 | 0.00 | 0.00 | 23 | 1023.7 |
| 20260507225201 | 80 | 100 | 5.0 | 10.0 | 0.00 | 0.00 | 0.00 | 24 | 1023.8 |
| 20260507224702 | 80 | 148 | 4.0 | 10.0 | 0.00 | 0.00 | 0.00 | 23 | 1023.8 |
| 20260507224200 | 80 | 82 | 6.0 | 10.0 | 0.00 | 0.00 | 0.00 | 23 | 1023.9 |
| 20260507223702 | 80 | 117 | 4.0 | 11.0 | 0.00 | 0.00 | 0.00 | 24 | 1024.0 |
| 20260507223201 | 80 | 155 | 6.0 | 11.0 | 0.00 | 0.00 | 0.00 | 24 | 1024.0 |
| 20260507222920 | 80 | 103 | 4.0 | 9.0 | 0.00 | 0.00 | 0.00 | 24 | 1024.1 |
| 20260507222800 | 79 | 103 | 4.0 | 9.0 | 0.00 | 0.00 | 0.00 | 23 | 1024.0 |
| 20260507221659 | 80 | 51 | 3.0 | 9.0 | 0.00 | 0.00 | 0.00 | 23 | 1024.2 |
| 20260507221201 | 79 | 93 | 3.0 | 11.0 | 0.00 | 0.00 | 0.00 | 24 | 1024.4 |
| 20260507220700 | 79 | 137 | 7.0 | 11.0 | 0.00 | 0.00 | 0.00 | 23 | 1024.4 |
| 20260507220201 | 79 | 117 | 4.0 | 12.0 | 0.00 | 0.00 | 0.00 | 25 | 1024.5 |
| 20260507215659 | 80 | 117 | 8.0 | 12.0 | 0.00 | 0.00 | 0.00 | 23 | 1024.5 |
| 20260507215423 | 80 | 86 | 4.0 | 10.0 | 0.00 | 0.00 | 0.00 | 24 | 1024.5 |
| 20260507214700 | 80 | 103 | 2.0 | 10.0 | 0.00 | 0.00 | 0.00 | 24 | 1024.6 |
| 20260507214159 | 79 | 51 | 4.0 | 10.0 | 0.00 | 0.00 | 0.00 | 24 | 1024.8 |
| 20260507213659 | 79 | 114 | 5.0 | 10.0 | 0.00 | 0.00 | 0.00 | 23 | 1024.8 |
| 20260507213159 | 79 | 124 | 3.0 | 12.0 | 0.00 | 0.00 | 0.00 | 24 | 1024.8 |
| 20260507212700 | 78 | 134 | 6.0 | 12.0 | 0.00 | 0.00 | 0.00 | 23 | 1024.9 |
| 20260507212159 | 79 | 137 | 2.0 | 12.0 | 0.00 | 0.00 | 0.00 | 23 | 1024.9 |
| 20260507211700 | 79 | 73 | 5.0 | 12.0 | 0.00 | 0.00 | 0.00 | 22 | 1025.0 |
| 20260507211159 | 79 | 49 | 5.0 | 11.0 | 0.00 | 0.00 | 0.00 | 24 | 1024.9 |
| 20260507210700 | 79 | 171 | 3.0 | 10.0 | 0.00 | 0.00 | 0.00 | 23 | 1025.0 |
| 20260507210158 | 79 | 114 | 6.0 | 10.0 | 0.00 | 0.00 | 0.00 | 23 | 1025.1 |
| 20260507205658 | 78 | 71 | 2.0 | 11.0 | 0.00 | 0.00 | 0.00 | 24 | 1025.2 |
| 20260507205159 | 77 | 52 | 5.0 | 12.0 | 0.00 | 0.00 | 0.00 | 24 | 1025.2 |
| 20260507204924 | 77 | 121 | 7.0 | 12.0 | 0.00 | 0.00 | 0.00 | 23 | 1025.3 |
| 20260507204159 | 78 | 111 | 5.0 | 11.0 | 0.00 | 0.00 | 0.00 | 24 | 1025.3 |
| 20260507203658 | 78 | 125 | 5.0 | 12.0 | 0.00 | 0.00 | 0.00 | 24 | 1025.5 |
| 20260507203159 | 78 | 87 | 4.0 | 12.0 | 0.00 | 0.00 | 0.00 | 26 | 1025.5 |
| 20260507202658 | 78 | 92 | 5.0 | 11.0 | 0.00 | 0.00 | 0.00 | 24 | 1025.5 |
| 20260507202157 | 77 | 49 | 5.0 | 13.0 | 0.00 | 0.00 | 0.00 | 27 | 1025.5 |
| 20260507201701 | 78 | 106 | 4.0 | 14.0 | 0.00 | 0.00 | 0.00 | 25 | 1025.6 |
| 20260507201156 | 77 | 78 | 6.0 | 14.0 | 0.00 | 0.00 | 0.00 | 25 | 1025.7 |
| 20260507200658 | 77 | 55 | 5.0 | 13.0 | 0.00 | 0.00 | 0.00 | 24 | 1025.6 |
| 20260507200157 | 77 | 116 | 5.0 | 10.0 | 0.00 | 0.00 | 0.00 | 26 | 1025.7 |
| 20260507195922 | 77 | 106 | 4.0 | 11.0 | 0.00 | 0.00 | 0.00 | 28 | 1025.7 |
| 20260507195157 | 76 | 142 | 6.0 | 11.0 | 0.00 | 0.00 | 0.00 | 26 | 1025.7 |
| 20260507194658 | 76 | 99 | 6.0 | 11.0 | 0.00 | 0.00 | 0.00 | 26 | 1025.7 |
| 20260507194418 | 76 | 109 | 3.0 | 10.0 | 0.00 | 0.00 | 0.00 | 26 | 1025.6 |
| 20260507193657 | 76 | 90 | 6.0 | 10.0 | 0.00 | 0.00 | 0.00 | 27 | 1025.7 |
| 20260507193157 | 76 | 58 | 4.0 | 9.0 | 0.00 | 0.00 | 0.00 | 26 | 1025.8 |
| 20260507192656 | 76 | 86 | 3.0 | 10.0 | 0.00 | 0.00 | 0.00 | 27 | 1026.1 |
| 20260507192157 | 75 | 134 | 3.0 | 10.0 | 0.00 | 0.00 | 0.00 | 28 | 1026.0 |
| 20260507191656 | 75 | 131 | 3.0 | 7.0 | 0.00 | 0.00 | 0.00 | 27 | 1026.1 |
| 20260507191158 | 75 | 80 | 4.0 | 10.0 | 0.00 | 0.00 | 0.00 | 26 | 1026.2 |
| 20260507190655 | 75 | 116 | 3.0 | 10.0 | 0.00 | 0.00 | 0.00 | 26 | 1026.1 |
| 20260507190157 | 75 | 323 | 2.0 | 6.0 | 0.00 | 0.00 | 0.00 | 25 | 1026.2 |
| 20260507185919 | 75 | 142 | 3.0 | 6.0 | 0.00 | 0.00 | 0.00 | 26 | 1026.2 |
| 20260507184655 | 74 | 107 | 1.0 | 7.0 | 0.00 | 0.00 | 0.00 | 27 | 1026.2 |
| 20260507184411 | 74 | 144 | 3.0 | 7.0 | 0.00 | 0.00 | 0.00 | 26 | 1026.3 |
| 20260507183656 | 74 | 47 | 2.0 | 5.0 | 0.00 | 0.00 | 0.00 | 28 | 1026.4 |
| 20260507183155 | 74 | 93 | 2.0 | 5.0 | 0.00 | 0.00 | 0.00 | 26 | 1026.4 |
| 20260507182923 | 74 | 39 | 2.0 | 6.0 | 0.00 | 0.00 | 0.00 | 27 | 1026.4 |
| 20260507182155 | 74 | 158 | 1.0 | 6.0 | 0.00 | 0.00 | 0.00 | 27 | 1026.5 |
| 20260507181655 | 74 | 243 | 2.0 | 5.0 | 0.00 | 0.00 | 0.00 | 28 | 1026.5 |
| 20260507181634 | 73 | 314 | 1.0 | 5.0 | 0.00 | 0.00 | 0.00 | 31 | 1026.5 |
| 20260507180654 | 73 | 16 | 1.0 | 4.0 | 0.00 | 0.00 | 0.00 | 29 | 1026.5 |
| 20260507180155 | 73 | 271 | 1.0 | 6.0 | 0.00 | 0.00 | 0.00 | 30 | 1026.6 |
| 20260507175654 | 72 | 326 | 3.0 | 11.0 | 0.00 | 0.00 | 0.00 | 29 | 1026.6 |
| 20260507175156 | 72 | 266 | 2.0 | 11.0 | 0.00 | 0.00 | 0.00 | 32 | 1026.7 |
| 20260507174657 | 73 | 248 | 3.0 | 6.0 | 0.00 | 0.00 | 0.00 | 31 | 1026.6 |
| 20260507174647 | 72 | 286 | 2.0 | 6.0 | 0.00 | 0.00 | 0.00 | 31 | 1026.7 |
| 20260507173653 | 71 | 259 | 0.0 | 10.0 | 0.00 | 0.00 | 0.00 | 34 | 1026.7 |
| 20260507173415 | 71 | 333 | 3.0 | 10.0 | 0.00 | 0.00 | 0.00 | 34 | 1026.7 |
| 20260507172654 | 71 | 293 | 2.0 | 9.0 | 0.00 | 0.00 | 0.00 | 34 | 1026.7 |
| 20260507172412 | 70 | 302 | 4.0 | 9.0 | 0.00 | 0.00 | 0.00 | 34 | 1026.6 |
| 20260507171654 | 70 | 292 | 4.0 | 9.0 | 0.00 | 0.00 | 0.00 | 33 | 1026.7 |
| 20260507171153 | 70 | 286 | 2.0 | 6.0 | 0.00 | 0.00 | 0.00 | 35 | 1026.7 |
| 20260507170917 | 69 | 321 | 2.0 | 7.0 | 0.00 | 0.00 | 0.00 | 38 | 1026.8 |
| 20260507170153 | 68 | 272 | 3.0 | 12.0 | 0.00 | 0.00 | 0.00 | 37 | 1026.8 |
| 20260507165654 | 68 | 276 | 5.0 | 12.0 | 0.00 | 0.00 | 0.00 | 36 | 1026.9 |
| 20260507165410 | 67 | 264 | 4.0 | 13.0 | 0.00 | 0.00 | 0.00 | 37 | 1026.9 |
| 20260507164653 | 67 | 285 | 6.0 | 14.0 | 0.00 | 0.00 | 0.00 | 37 | 1027.0 |
| 20260507164150 | 67 | 302 | 3.0 | 14.0 | 0.00 | 0.00 | 0.00 | 38 | 1026.9 |
| 20260507163652 | 67 | 282 | 2.0 | 9.0 | 0.00 | 0.00 | 0.00 | 39 | 1026.9 |
| 20260507163153 | 67 | 274 | 4.0 | 11.0 | 0.00 | 0.00 | 0.00 | 39 | 1027.0 |
| 20260507162909 | 66 | 293 | 6.0 | 11.0 | 0.00 | 0.00 | 0.00 | 38 | 1027.0 |
| 20260507162422 | 66 | 266 | 5.0 | 13.0 | 0.00 | 0.00 | 0.00 | 39 | 1027.1 |
| 20260507161652 | 66 | 271 | 6.0 | 13.0 | 0.00 | 0.00 | 0.00 | 40 | 1027.2 |
| 20260507161152 | 65 | 214 | 4.0 | 12.0 | 0.00 | 0.00 | 0.00 | 40 | 1027.3 |
| 20260507160652 | 65 | 292 | 4.0 | 12.0 | 0.00 | 0.00 | 0.00 | 42 | 1027.5 |
| 20260507160152 | 65 | 272 | 2.0 | 11.0 | 0.00 | 0.00 | 0.00 | 42 | 1027.2 |
| 20260507155649 | 65 | 241 | 2.0 | 15.0 | 0.00 | 0.00 | 0.00 | 41 | 1027.2 |
| 20260507155420 | 64 | 288 | 3.0 | 15.0 | 0.00 | 0.00 | 0.00 | 42 | 1027.5 |
| 20260507154652 | 64 | 274 | 3.0 | 11.0 | 0.00 | 0.00 | 0.00 | 43 | 1027.5 |
| 20260507154416 | 64 | 289 | 3.0 | 10.0 | 0.00 | 0.00 | 0.00 | 43 | 1027.5 |
| 20260507153652 | 63 | 278 | 3.0 | 12.0 | 0.00 | 0.00 | 0.00 | 44 | 1027.6 |
| 20260507153151 | 63 | 264 | 4.0 | 15.0 | 0.00 | 0.00 | 0.00 | 44 | 1027.6 |
| 20260507152651 | 62 | 271 | 3.0 | 15.0 | 0.00 | 0.00 | 0.00 | 44 | 1027.6 |
| 20260507152151 | 62 | 333 | 4.0 | 11.0 | 0.00 | 0.00 | 0.00 | 45 | 1027.7 |
| 20260507151650 | 62 | 275 | 3.0 | 10.0 | 0.00 | 0.00 | 0.00 | 45 | 1027.7 |
| 20260507151148 | 61 | 336 | 3.0 | 10.0 | 0.00 | 0.00 | 0.00 | 46 | 1027.9 |
| 20260507150650 | 61 | 286 | 3.0 | 7.0 | 0.00 | 0.00 | 0.00 | 47 | 1027.9 |
| 20260507150151 | 61 | 262 | 3.0 | 7.0 | 0.00 | 0.00 | 0.00 | 46 | 1027.9 |
| 20260507145650 | 61 | 300 | 2.0 | 11.0 | 0.00 | 0.00 | 0.00 | 47 | 1027.9 |
| 20260507145412 | 60 | 289 | 3.0 | 11.0 | 0.00 | 0.00 | 0.00 | 48 | 1027.8 |
| 20260507144650 | 60 | 281 | 3.0 | 14.0 | 0.00 | 0.00 | 0.00 | 48 | 1027.8 |
| 20260507144150 | 60 | 278 | 5.0 | 14.0 | 0.00 | 0.00 | 0.00 | 48 | 1027.8 |
| 20260507143646 | 60 | 307 | 8.0 | 14.0 | 0.00 | 0.00 | 0.00 | 47 | 1027.7 |
| 20260507143145 | 59 | 290 | 2.0 | 12.0 | 0.00 | 0.00 | 0.00 | 49 | 1027.7 |
| 20260507142648 | 59 | 303 | 5.0 | 13.0 | 0.00 | 0.00 | 0.00 | 48 | 1027.8 |
| 20260507142418 | 59 | 248 | 6.0 | 13.0 | 0.00 | 0.00 | 0.00 | 49 | 1027.9 |
| 20260507141650 | 58 | 296 | 3.0 | 13.0 | 0.00 | 0.00 | 0.00 | 51 | 1028.0 |
| 20260507141149 | 58 | 271 | 3.0 | 14.0 | 0.00 | 0.00 | 0.00 | 50 | 1027.9 |
| 20260507140650 | 58 | 299 | 3.0 | 14.0 | 0.00 | 0.00 | 0.00 | 51 | 1027.8 |
| 20260507140149 | 58 | 281 | 4.0 | 14.0 | 0.00 | 0.00 | 0.00 | 51 | 1027.9 |
| 20260507135649 | 57 | 269 | 6.0 | 14.0 | 0.00 | 0.00 | 0.00 | 51 | 1027.8 |
| 20260507135146 | 57 | 274 | 2.0 | 12.0 | 0.00 | 0.00 | 0.00 | 52 | 1027.8 |
| 20260507134645 | 57 | 269 | 4.0 | 12.0 | 0.00 | 0.00 | 0.00 | 51 | 1027.7 |
| 20260507134146 | 57 | 283 | 4.0 | 10.0 | 0.00 | 0.00 | 0.00 | 52 | 1027.6 |
| 20260507133648 | 57 | 320 | 2.0 | 9.0 | 0.00 | 0.00 | 0.00 | 53 | 1027.6 |
| 20260507133409 | 56 | 313 | 4.0 | 9.0 | 0.00 | 0.00 | 0.00 | 53 | 1027.5 |
| 20260507132648 | 56 | 283 | 4.0 | 9.0 | 0.00 | 0.00 | 0.00 | 53 | 1027.5 |
| 20260507132148 | 56 | 314 | 4.0 | 9.0 | 0.00 | 0.00 | 0.00 | 52 | 1027.5 |
| 20260507131915 | 56 | 254 | 4.0 | 9.0 | 0.00 | 0.00 | 0.00 | 53 | 1027.6 |
| 20260507131144 | 56 | 264 | 3.0 | 10.0 | 0.00 | 0.00 | 0.00 | 52 | 1027.3 |
| 20260507130645 | 56 | 269 | 3.0 | 10.0 | 0.00 | 0.00 | 0.00 | 52 | 1027.2 |
| 20260507130144 | 56 | 262 | 5.0 | 9.0 | 0.00 | 0.00 | 0.00 | 52 | 1027.1 |
| 20260507125646 | 56 | 281 | 4.0 | 10.0 | 0.00 | 0.00 | 0.00 | 52 | 1027.1 |
| 20260507125147 | 56 | 290 | 5.0 | 10.0 | 0.00 | 0.00 | 0.00 | 52 | 1027.0 |
| 20260507124649 | 56 | 300 | 4.0 | 6.0 | 0.00 | 0.00 | 0.00 | 52 | 1027.0 |
| 20260507124147 | 56 | 283 | 4.0 | 11.0 | 0.00 | 0.00 | 0.00 | 52 | 1027.0 |
| 20260507123647 | 56 | 251 | 2.0 | 11.0 | 0.00 | 0.00 | 0.00 | 52 | 1027.0 |
| 20260507123408 | 56 | 279 | 4.0 | 11.0 | 0.00 | 0.00 | 0.00 | 51 | 1027.0 |
| 20260507122647 | 56 | 285 | 4.0 | 6.0 | 0.00 | 0.00 | 0.00 | 51 | 1027.0 |
| 20260507122147 | 56 | 278 | 2.0 | 6.0 | 0.00 | 0.00 | 0.00 | 51 | 1027.0 |
| 20260507121647 | 56 | 275 | 3.0 | 7.0 | 0.00 | 0.00 | 0.00 | 51 | 1027.1 |
| 20260507121145 | 56 | 272 | 4.0 | 9.0 | 0.00 | 0.00 | 0.00 | 50 | 1027.1 |
| 20260507120646 | 57 | 261 | 5.0 | 9.0 | 0.00 | 0.00 | 0.00 | 50 | 1027.1 |
| 20260507120148 | 57 | 264 | 2.0 | 9.0 | 0.00 | 0.00 | 0.00 | 50 | 1027.1 |
| 20260507115908 | 57 | 290 | 3.0 | 9.0 | 0.00 | 0.00 | 0.00 | 50 | 1027.1 |
| 20260507115146 | 57 | 282 | 2.0 | 6.0 | 0.00 | 0.00 | 0.00 | 50 | 1027.2 |
| 20260507114646 | 57 | 17 | 1.0 | 6.0 | 0.00 | 0.00 | 0.00 | 50 | 1027.1 |
| 20260507114404 | 57 | 17 | 3.0 | 12.0 | 0.00 | 0.00 | 0.00 | 50 | 1027.1 |
| 20260507113643 | 57 | 289 | 1.0 | 12.0 | 0.00 | 0.00 | 0.00 | 50 | 1027.1 |
| 20260507113142 | 57 | 283 | 2.0 | 5.0 | 0.00 | 0.00 | 0.00 | 50 | 1027.2 |
| 20260507112900 | 57 | 272 | 1.0 | 10.0 | 0.00 | 0.00 | 0.00 | 50 | 1027.2 |
| 20260507112145 | 57 | 131 | 2.0 | 10.0 | 0.00 | 0.00 | 0.00 | 49 | 1027.1 |
| 20260507111647 | 57 | 1 | 2.0 | 5.0 | 0.00 | 0.00 | 0.00 | 49 | 1027.1 |
| 20260507111146 | 57 | 310 | 2.0 | 6.0 | 0.00 | 0.00 | 0.00 | 49 | 1027.0 |
| 20260507110645 | 57 | 247 | 0.0 | 17.0 | 0.00 | 0.00 | 0.00 | 49 | 1027.0 |
| 20260507110145 | 57 | 329 | 3.0 | 17.0 | 0.00 | 0.00 | 0.00 | 49 | 1027.0 |
| 20260507105644 | 57 | 96 | 3.0 | 9.0 | 0.00 | 0.00 | 0.00 | 48 | 1026.9 |
| 20260507105405 | 57 | 320 | 2.0 | 11.0 | 0.00 | 0.00 | 0.00 | 48 | 1027.0 |
| 20260507104645 | 57 | 127 | 3.0 | 11.0 | 0.00 | 0.00 | 0.00 | 48 | 1027.0 |
| 20260507104146 | 58 | 324 | 1.0 | 11.0 | 0.00 | 0.00 | 0.00 | 48 | 1027.0 |
| 20260507103911 | 58 | 238 | 3.0 | 11.0 | 0.00 | 0.00 | 0.00 | 47 | 1026.9 |
| 20260507103144 | 58 | 310 | 2.0 | 10.0 | 0.00 | 0.00 | 0.00 | 48 | 1026.9 |
| 20260507102644 | 58 | 281 | 1.0 | 10.0 | 0.00 | 0.00 | 0.00 | 47 | 1027.0 |
| 20260507102407 | 58 | 320 | 2.0 | 9.0 | 0.00 | 0.00 | 0.00 | 47 | 1026.9 |
| 20260507101644 | 58 | 255 | 3.0 | 9.0 | 0.00 | 0.00 | 0.00 | 47 | 1027.0 |
| 20260507101144 | 58 | 262 | 2.0 | 9.0 | 0.00 | 0.00 | 0.00 | 48 | 1026.8 |
| 20260507100641 | 58 | 255 | 2.0 | 9.0 | 0.00 | 0.00 | 0.00 | 48 | 1026.9 |
| 20260507100140 | 58 | 319 | 2.0 | 6.0 | 0.00 | 0.00 | 0.00 | 48 | 1026.8 |
| 20260507095645 | 58 | 162 | 2.0 | 11.0 | 0.00 | 0.00 | 0.00 | 48 | 1026.7 |
| 20260507095144 | 58 | 268 | 3.0 | 11.0 | 0.00 | 0.00 | 0.00 | 47 | 1026.7 |
| 20260507094643 | 58 | 34 | 2.0 | 11.0 | 0.00 | 0.00 | 0.00 | 47 | 1026.7 |
| 20260507094400 | 58 | 262 | 3.0 | 11.0 | 0.00 | 0.00 | 0.00 | 48 | 1026.6 |
| 20260507093643 | 58 | 214 | 2.0 | 9.0 | 0.00 | 0.00 | 0.00 | 48 | 1026.6 |
| 20260507093144 | 58 | 265 | 1.0 | 6.0 | 0.00 | 0.00 | 0.00 | 48 | 1026.6 |
| 20260507092643 | 58 | 329 | 1.0 | 6.0 | 0.00 | 0.00 | 0.00 | 48 | 1026.5 |
| 20260507092412 | 58 | 299 | 2.0 | 7.0 | 0.00 | 0.00 | 0.00 | 48 | 1026.5 |
| 20260507092144 | 58 | 288 | 1.0 | 7.0 | 0.00 | 0.00 | 0.00 | 48 | 1026.5 |
| 20260507091144 | 58 | 30 | 2.0 | 9.0 | 0.00 | 0.00 | 0.00 | 47 | 1026.5 |